[[{"header":{"parameterUnit":"m.s-1","parameterCategory":1,"la1":30.2991,"la2":30.254,"lo1":-89.0895,"lo2":-89.0444,"dy":0.0017,"dx":0.0017,"nx":28,"ny":28,"refTime":"2025-08-20T03:00:00:Z","depth":0,"parameterNumber":2,"parameterNumberName":"U-component_of_WINDS"},"data":[0,0,0,0,0,0,0,0,0,0,0,0,0,0,0,0,0,0,0,0,0,0,0,0,0,0,0,0,0,0,0,0,0,0,0,0,0,0,0,0,0,0,0,0,0,0,0,0,0,0,0,0,0,0,0,0,0,0,3.9424,3.9426,0,3.9558,3.956,3.9561,3.952,3.9517,3.9515,3.9512,3.9643,3.9649,3.9655,0,0,0,0,0,0,0,0,0,0,0,0,0,3.9127,3.9132,3.9424,3.9426,3.9427,3.9558,3.956,3.9562,3.9521,3.9517,3.9514,3.9511,3.9641,3.9649,3.9656,0,0,0,0,0,0,0,0,0,0,0,0,0,3.9258,3.9134,3.9424,3.9423,3.9424,3.9558,3.956,3.9562,3.9521,3.9517,3.9513,3.9509,3.9639,3.9648,3.9657,3.9797,0,0,3.9685,3.9689,0,0,0,0,0,0,0,0,3.925,3.9269,3.9421,3.9423,3.9425,3.9518,3.9503,3.9641,3.9523,3.9484,3.9512,3.9507,3.9605,3.9616,3.9651,3.9803,3.9809,3.9686,3.9691,3.9695,3.9698,0,0,0,0,0,0,0,3.9241,3.9263,3.9477,3.9424,3.9426,3.9414,3.9428,3.9529,3.9566,3.9487,3.9485,3.9501,3.9605,3.9642,3.9653,3.9811,3.9685,3.9693,3.9699,3.9703,4.0083,4.0087,0,0,0,0,0,0,3.9232,3.9255,3.9473,3.9481,3.9326,3.9423,3.9438,3.9492,3.9565,3.9572,3.9505,3.9499,3.9628,3.9643,3.9658,3.9824,3.9695,3.9704,3.9709,4.0078,4.0084,4.0089,0,0,0,0,0,0,3.9226,3.9252,3.9467,3.9368,3.9394,3.9432,3.9493,3.9497,3.9534,3.9578,3.9584,3.9536,3.9626,3.9645,3.9763,3.9828,3.9708,3.9716,4.0073,4.008,4.0086,4.016,0,0,0,0,0,0,3.9217,3.925,3.9305,3.9369,3.94,3.9572,3.9498,3.9503,3.9551,3.9544,3.9609,3.9616,3.9624,3.9749,3.9772,3.9839,3.9723,4.0067,4.0076,4.0084,4.0152,4.0168,4.0183,0,0,0,0,0,3.9207,3.932,3.9308,3.9334,3.947,3.9576,3.9593,3.9601,3.9556,3.9611,3.9639,3.9614,3.9819,3.9762,3.9787,3.9857,4.0063,4.0073,4.0083,4.0145,4.0165,4.0182,0,0,0,0,0,0,3.926,3.9328,3.9316,3.9453,3.9509,3.9569,3.9637,3.9623,3.9691,3.9682,3.9688,3.9703,3.9823,3.9853,3.9788,3.9996,3.9934,3.9949,3.9972,3.9991,4.0007,3.9995,3.9731,0,0,0,0,0,3.9288,3.9371,3.9425,3.954,3.957,3.9599,3.9646,3.9648,3.9705,3.9728,3.9765,3.982,3.9896,3.9946,4.0019,4.0157,4.0168,4.0218,4.0233,4.0246,4.0258,4.033,4.0352,4.0123,4.0123,4.0122,0,0,3.9346,3.9393,3.9445,3.9552,3.9596,3.9679,3.9619,3.971,3.977,3.9741,3.9854,3.9883,3.9945,4.0073,4.0131,4.0101,4.0325,4.0259,4.0269,4.0274,4.0343,4.0365,4.0384,4.013,4.0128,4.0127,0,0,3.9493,3.9539,3.9639,3.9684,3.9752,3.9771,3.9795,3.9857,3.9876,3.999,3.9969,4.0041,4.0173,4.0217,4.0257,4.0421,4.0399,4.0445,4.0524,4.0595,4.0613,4.0628,4.0683,4.0703,4.0458,4.0458,4.0458,0,3.9555,3.9681,3.9692,3.9784,3.9831,3.9811,3.991,3.9953,4.0041,4.0072,4.0038,4.0203,4.0243,4.0379,4.042,4.0454,4.0479,4.0435,4.061,4.0626,4.0641,4.0693,4.0714,4.0463,4.0462,4.0462,4.0461,0,3.9753,3.9841,3.9913,3.9999,4.0055,4.015,4.0173,4.0228,4.0225,4.0247,4.0362,4.041,4.0491,4.0525,4.0523,4.066,4.0639,4.0608,4.0545,4.0667,4.0716,4.0737,4.047,4.0468,4.0467,4.0465,0,0,3.9934,4.0026,4.0052,4.009,4.0164,4.023,4.0324,4.0406,4.045,4.0512,4.0588,4.0701,4.0672,4.0717,4.072,4.0783,4.0905,4.0743,4.0745,4.0768,4.1056,4.1076,4.1099,4.0893,4.0897,4.09,4.1049,0,4.0085,4.0251,4.0264,4.0413,4.0492,4.0475,4.0556,4.0609,4.0632,4.0701,4.0726,4.0804,4.0762,4.0789,4.085,4.0877,4.0962,4.0868,4.096,4.0964,4.0941,4.1125,4.1148,4.1286,4.1069,4.1072,4.1075,0,4.0282,4.035,4.0508,4.0569,4.0602,4.0676,4.075,4.0817,4.0876,4.0888,4.0939,4.0933,4.1027,4.0964,4.1091,4.1026,4.1065,4.1085,4.109,4.1096,4.1023,4.1132,4.133,4.1349,4.1106,4.1103,4.1101,0,4.0393,4.0525,4.0636,4.067,4.0744,4.0796,4.0829,4.0884,4.0931,4.0996,4.1026,4.1101,4.1141,4.1197,4.1211,4.1164,4.1337,4.1276,4.1346,4.1346,4.138,4.1377,4.1583,4.1413,4.1412,4.1412,4.1411,0,4.0558,4.0654,4.0687,4.0754,4.0861,4.0874,4.0978,4.1008,4.1057,4.1128,4.1118,4.1185,4.12,4.1269,4.1281,4.1382,4.1401,4.1411,4.1412,4.141,4.1408,4.1432,4.1422,4.1417,4.1416,4.1415,4.1414,0,4.0699,4.0726,4.0844,4.0906,4.0924,4.0999,4.1051,4.1114,4.1137,4.1227,4.1249,4.1283,4.1364,4.1384,4.148,4.1488,4.1606,4.16,4.1587,4.1585,4.1653,4.1645,4.1879,4.1909,4.1722,4.1724,4.1726,0,4.08,4.0873,4.0943,4.0991,4.1027,4.1105,4.1153,4.1169,4.1219,4.1291,4.1346,4.1426,4.149,4.1619,4.1651,4.1724,4.1717,4.1794,4.1727,4.1722,4.1713,4.1707,4.1712,4.1805,4.1807,4.1809,4.181,0,4.0975,4.0985,4.1056,4.1133,4.1192,4.1252,4.131,4.1349,4.1372,4.1429,4.1512,4.1562,4.1661,4.1739,4.1812,4.1843,4.1829,4.1831,4.1851,4.1847,4.1834,4.1838,4.1617,4.1825,4.1823,4.1822,4.1821,4.1821,4.1097,4.116,4.1219,4.1299,4.1344,4.1398,4.1461,4.1492,4.1562,4.1644,4.1649,4.1738,4.1793,4.189,4.1926,4.1995,4.1971,4.2,4.2007,4.2012,4.2016,4.1827,4.2008,4.2008,4.2008,4.2007,4.2007,0,4.1268,4.1305,4.1379,4.146,4.1522,4.1508,4.157,4.1622,4.1701,4.1755,4.1819,4.1913,4.1989,4.2027,4.2102,4.2149,4.2144,4.2167,4.2162,4.2168,4.2036,4.2009,4.217,4.217,4.217,4.2169,4.2169,4.2169,4.1364,4.147,4.1487,4.1614,4.165,4.1739,4.1776,4.1825,4.1867,4.1973,4.2037,4.2062,4.2109,4.2187,4.2254,4.2263,4.2289,4.2315,4.2321,4.2195,4.2178,4.2162,4.2137,4.2322,4.2322,4.2447,4.2448,4.2449]},{"header":{"parameterUnit":"m.s-1","parameterCategory":1,"la1":30.2991,"la2":30.254,"lo1":-89.0895,"lo2":-89.0444,"dy":0.0017,"dx":0.0017,"nx":28,"ny":28,"refTime":"2025-08-20T03:00:00:Z","depth":0,"parameterNumber":3,"parameterNumberName":"V-component_of_WINDS"},"data":[0,0,0,0,0,0,0,0,0,0,0,0,0,0,0,0,0,0,0,0,0,0,0,0,0,0,0,0,0,0,0,0,0,0,0,0,0,0,0,0,0,0,0,0,0,0,0,0,0,0,0,0,0,0,0,0,0,0,0.8392,0.8392,0,0.8391,0.8391,0.8391,0.8354,0.8353,0.8352,0.8351,0.8353,0.8354,0.8355,0,0,0,0,0,0,0,0,0,0,0,0,0,0.8361,0.8362,0.8392,0.8392,0.8392,0.8391,0.8391,0.8391,0.8354,0.8353,0.8352,0.8351,0.8352,0.8353,0.8355,0,0,0,0,0,0,0,0,0,0,0,0,0,0.8369,0.8362,0.8392,0.8373,0.8372,0.8391,0.8391,0.8391,0.8354,0.8353,0.8351,0.835,0.8352,0.8353,0.8355,0.8393,0,0,0.8359,0.836,0,0,0,0,0,0,0,0,0.8369,0.837,0.8376,0.8375,0.8373,0.8371,0.8381,0.8392,0.8355,0.8361,0.8351,0.8349,0.836,0.8361,0.8364,0.8393,0.8393,0.8359,0.836,0.8361,0.8361,0,0,0,0,0,0,0,0.8368,0.837,0.8392,0.8376,0.8374,0.8365,0.8365,0.8383,0.8369,0.836,0.8358,0.8358,0.8359,0.8363,0.8364,0.8393,0.8359,0.8361,0.8361,0.8362,0.8451,0.8453,0,0,0,0,0,0,0.837,0.837,0.8392,0.8392,0.8367,0.8367,0.8366,0.8373,0.8369,0.8366,0.8359,0.8356,0.8361,0.8362,0.8364,0.8406,0.8361,0.8362,0.8363,0.845,0.8451,0.8453,0,0,0,0,0,0,0.837,0.8372,0.8392,0.838,0.8382,0.8369,0.8377,0.8374,0.8378,0.8368,0.8365,0.8366,0.836,0.8362,0.8385,0.8406,0.8363,0.8364,0.8448,0.845,0.8452,0.8493,0,0,0,0,0,0,0.8369,0.8372,0.8387,0.8381,0.8383,0.8413,0.8378,0.8375,0.838,0.8376,0.8373,0.8371,0.8359,0.8383,0.8387,0.8407,0.8365,0.8446,0.8449,0.8452,0.849,0.8497,0.8502,0,0,0,0,0,0.8368,0.84,0.8388,0.8391,0.84,0.8415,0.8416,0.8401,0.8382,0.8396,0.8389,0.8371,0.8403,0.8386,0.839,0.8411,0.8445,0.8448,0.8451,0.8487,0.8495,0.8502,0,0,0,0,0,0,0.841,0.8398,0.8385,0.8416,0.8416,0.8408,0.8426,0.841,0.8417,0.8413,0.8394,0.8394,0.842,0.8418,0.8399,0.8446,0.8421,0.8425,0.8447,0.8454,0.846,0.846,0.8366,0,0,0,0,0,0.8423,0.8435,0.8424,0.8452,0.8453,0.8439,0.8445,0.8433,0.8433,0.8434,0.8429,0.843,0.844,0.8447,0.8456,0.849,0.8488,0.8506,0.8512,0.8517,0.8521,0.8536,0.8544,0.8464,0.8464,0.8464,0,0,0.8449,0.8444,0.8454,0.846,0.8459,0.8472,0.844,0.8456,0.8465,0.8436,0.8457,0.8454,0.8454,0.8482,0.8494,0.8481,0.8542,0.8521,0.8526,0.8526,0.854,0.8548,0.8555,0.8467,0.8466,0.8466,0,0,0.8504,0.8502,0.8524,0.8523,0.8521,0.8512,0.8517,0.8511,0.8507,0.8528,0.8506,0.8517,0.8535,0.8535,0.8538,0.859,0.8573,0.8594,0.8626,0.8641,0.8647,0.8653,0.867,0.8676,0.8598,0.8598,0.8598,0,0.8537,0.8555,0.8537,0.8554,0.8557,0.853,0.8551,0.8552,0.8554,0.8556,0.8541,0.8562,0.856,0.8587,0.86,0.8603,0.8608,0.8594,0.8648,0.8653,0.8658,0.8674,0.8681,0.86,0.86,0.86,0.8599,0,0.8596,0.8609,0.8626,0.8627,0.8632,0.8651,0.8636,0.8643,0.863,0.8622,0.8643,0.864,0.8646,0.8652,0.8641,0.8677,0.8668,0.8651,0.8625,0.8668,0.8683,0.8689,0.8604,0.8603,0.8602,0.8601,0,0,0.8678,0.8666,0.8673,0.8672,0.8667,0.8677,0.8694,0.87,0.8706,0.8708,0.8721,0.8736,0.8719,0.8722,0.871,0.8723,0.8763,0.8704,0.8704,0.8714,0.88,0.8813,0.882,0.8751,0.8753,0.8754,0.88,0,0.8729,0.8757,0.874,0.8771,0.8782,0.8756,0.877,0.8769,0.8762,0.877,0.8762,0.8772,0.875,0.8751,0.8763,0.8755,0.878,0.8752,0.8763,0.8764,0.8763,0.8828,0.8842,0.8885,0.8806,0.8807,0.8807,0,0.8793,0.8796,0.8827,0.8818,0.8822,0.8835,0.8838,0.8846,0.8844,0.8837,0.8839,0.8823,0.8839,0.8813,0.8834,0.8815,0.8819,0.8815,0.8817,0.8816,0.8788,0.8828,0.8899,0.8905,0.8817,0.8816,0.8815,0,0.8848,0.8859,0.8879,0.8879,0.8869,0.8879,0.8876,0.8872,0.8875,0.8878,0.8879,0.8884,0.8887,0.8891,0.8876,0.8859,0.8898,0.8871,0.8892,0.8893,0.8901,0.8901,0.8973,0.8906,0.8906,0.8905,0.8905,0,0.8906,0.8926,0.8903,0.8915,0.8935,0.8916,0.8937,0.8931,0.8927,0.8937,0.8916,0.8926,0.8906,0.8914,0.8903,0.892,0.8922,0.8917,0.8913,0.8918,0.8919,0.892,0.8916,0.8907,0.8907,0.8907,0.8906,0,0.8971,0.8956,0.8975,0.8964,0.8961,0.8977,0.8967,0.8978,0.8968,0.8981,0.8983,0.8968,0.8976,0.8962,0.8968,0.896,0.8985,0.8978,0.8985,0.8983,0.9004,0.9002,0.9078,0.9086,0.9015,0.9016,0.9017,0,0.9008,0.9023,0.9012,0.9017,0.9014,0.9022,0.9025,0.9006,0.901,0.9007,0.9018,0.9023,0.9027,0.904,0.903,0.9034,0.9026,0.9052,0.9027,0.903,0.9025,0.9023,0.9024,0.9058,0.9059,0.9059,0.906,0,0.9076,0.9068,0.9073,0.9074,0.9078,0.9079,0.9078,0.9083,0.9063,0.9069,0.9076,0.9078,0.9084,0.9089,0.9091,0.9087,0.907,0.9068,0.9073,0.9077,0.9081,0.9077,0.8999,0.9066,0.9066,0.9065,0.9065,0.9065,0.9128,0.9138,0.9132,0.9137,0.9134,0.9134,0.9142,0.9133,0.9138,0.914,0.9129,0.9138,0.9133,0.9133,0.9131,0.9138,0.9126,0.9134,0.9135,0.9137,0.914,0.908,0.9138,0.9138,0.9138,0.9138,0.9138,0,0.9193,0.9187,0.9192,0.9191,0.9195,0.9178,0.9175,0.918,0.9188,0.9185,0.9188,0.9195,0.92,0.9189,0.9192,0.9199,0.9191,0.9201,0.9199,0.9199,0.9151,0.9146,0.9207,0.9207,0.9207,0.9207,0.9207,0.9207,0.9227,0.9244,0.9234,0.9248,0.9242,0.925,0.925,0.9249,0.9246,0.9255,0.9258,0.9251,0.9244,0.9246,0.9249,0.9246,0.9248,0.926,0.9253,0.9209,0.9202,0.9196,0.9191,0.926,0.926,0.93,0.9301,0.9301]}]]